Home > Weather > Burnaby > Past weeks

Flag for Canada Past Weather in Burnaby, British Columbia, Canada — Yesterday and Last 2 Weeks

Now
70 °F

Passing clouds.


Feels Like: 70 °F
Forecast: 55 / 73 °F
Wind: 9 mph from South

Location: Vancouver International Airport

Current Time: Aug 29, 2016 at 1:04:33 PM

Latest Report: Aug 29, 2016 at 12:00 PM


Visibility: 30 mi

Pressure: 30.02 "Hg

Humidity: 69%

Dew Point: 59 °F

Location of BurnabyLocation

Past Weather in Burnaby — Graph

°F

Burnaby Temperature Yesterday

Maximum temperature yesterday: 64 °F (at 1:00 PM)
Minimum temperature yesterday: 59 °F (at 2:00 AM)
Average temperature yesterday: 61 °F

High & Low Weather Summary for the Past Weeks

 TemperatureHumidityPressure
High79 °F (Aug 19, 5:00 PM)100% (Aug 29, 6:00 AM)30.26 "Hg (Aug 29, 6:00 AM)
Low55 °F (Aug 23, 4:00 AM)39% (Aug 26, 6:00 PM)29.72 "Hg (Aug 27, 4:00 AM)
Average66 °F75%30.01 "Hg
* Reported Aug 14 12:00 PM — Aug 29 12:00 PM, Burnaby, Weather by CustomWeather, © 2016

Note: Actual official high and low records may vary slightly from our data, if they occured in-between our weather recording intervals... More about our weather records

Advertising

Burnaby Weather History for the Previous 24 Hours

Scroll right to see more
 ConditionsComfort  
Time TempWeatherWind HumidityBarometerVisibility
12:00 PM
Mon, Aug 29
70 °FPassing clouds.9 mph69%30.02 "Hg30 mi
11:00 AM66 °FPassing clouds.9 mph73%30.03 "Hg20 mi
10:00 AM61 °FFog.8 mph94%30.05 "Hg3 mi
9:00 AM59 °FFog.12 mph100%30.06 "Hg3 mi
8:00 AM57 °FFog.8 mph100%30.06 "Hg3 mi
7:00 AM57 °FFog.7 mph100%30.06 "Hg3 mi
6:00 AM57 °FPassing clouds.6 mph100%30.05 "Hg10 mi
5:50 AM57 °FPassing clouds.5 mph94%30.05 "Hg10 mi
5:00 AM57 °FPartly cloudy.3 mph94%30.04 "Hg15 mi
4:00 AM55 °FPassing clouds.7 mph94%30.04 "Hg15 mi
3:00 AM59 °FPartly cloudy.2 mph94%30.04 "Hg15 mi
2:00 AM59 °FPassing clouds.3 mph94%30.04 "Hg15 mi
1:00 AM61 °FOvercast.6 mph88%30.04 "Hg15 mi
12:00 AM61 °FMostly cloudy.5 mph88%30.04 "Hg15 mi
11:00 PM
Sun, Aug 28
61 °FOvercast.6 mph88%30.05 "Hg15 mi
10:00 PM64 °FOvercast.2 mph68%30.04 "Hg20 mi
9:00 PM61 °FPartly sunny.3 mph88%30.06 "Hg20 mi
8:00 PM61 °FPartly sunny.3 mph88%30.06 "Hg20 mi
7:00 PM61 °FPartly sunny.5 mph88%30.08 "Hg20 mi
6:00 PM61 °FSprinkles. Cloudy.8 mph83%30.09 "Hg20 mi
5:00 PM64 °FMore clouds than sun.7 mph73%30.10 "Hg30 mi
4:00 PM63 °FMore clouds than sun.8 mph77%30.09 "Hg20 mi
3:00 PM63 °FSprinkles. More clouds than sun.8 mph77%30.10 "Hg20 mi
2:00 PM64 °FMore clouds than sun.10 mph73%30.09 "Hg30 mi
1:00 PM64 °FMore clouds than sun.6 mph68%30.09 "Hg30 mi
Weather by CustomWeather, © 2016

See weather overviewHow to use our weather pages